Location: Newark
(36.6843°N, 3.3697°E)
Time: 21:16:33
(UTC+00:00)

ISS - Visible Passes

Search period start: 08 December 2019 00:00
Search period end: 18 December 2019 00:00
Orbit: 411 x 421 km, 51.6° (Epoch: 08 December)

Date Brightness Start Highest point End Pass type
(mag) Time Alt. Az. Time Alt. Az. Time Alt. Az.
08 Dec -2.3 17:27:24 10° NNW 17:30:05 22° NNE 17:31:05 19° NE visible
08 Dec -0.5 19:03:46 10° WNW 19:04:01 12° WNW 19:04:01 12° WNW visible
09 Dec -3.7 18:15:09 10° NW 18:18:20 76° W 18:18:20 76° W visible
10 Dec -3.7 17:26:42 10° NW 17:30:00 54° NE 17:33:02 12° ESE visible
10 Dec -0.5 19:04:46 10° W 19:06:02 13° WSW 19:06:02 13° WSW visible
11 Dec -1.4 18:15:17 10° WNW 18:18:01 23° SW 18:20:47 10° S visible
12 Dec -2.5 17:26:24 10° WNW 17:29:37 44° SW 17:32:49 10° SSE visible
14 Dec -0.4 17:27:07 10° W 17:28:59 14° SW 17:30:51 10° SSW visible
